Date,TemperatureHighF,TemperatureAvgF,TemperatureLowF,DewpointHighF,DewpointAvgF,DewpointLowF,HumidityHigh,HumidityAvg,HumidityLow,PressureMaxIn,PressureMinIn,WindSpeedMaxMPH,WindSpeedAvgMPH,GustSpeedMaxMPH,PrecipitationSumIn
2013-1-1,28.0,20.2,9.0,13.0,4.2,-2.0,71,50,34,0.00,40.00,20,11,26,0.00
2013-1-2,27.0,18.6,6.0,13.0,3.4,-5.0,72,51,32,0.00,40.00,26,11,32,0.00
2013-1-3,36.0,18.2,5.0,-2.0,-7.1,-20.0,56,34,11,0.00,40.00,17,8,21,0.00
2013-1-4,35.0,20.4,11.0,6.0,-3.2,-9.0,46,35,27,0.00,40.00,17,7,23,0.00
2013-1-5,34.0,18.8,3.0,4.0,-2.5,-9.0,59,39,26,0.00,40.00,14,7,19,0.00
2013-1-6,51.0,32.8,7.0,3.0,-5.4,-33.0,52,22,10,0.00,40.00,28,12,40,0.00
2013-1-7,45.0,36.5,23.0,3.0,-2.6,-9.0,24,18,14,0.00,40.00,31,17,39,0.00
2013-1-8,44.0,38.0,34.0,12.0,8.2,3.0,36,28,22,0.00,40.00,30,21,42,0.00
2013-1-9,55.0,45.6,37.0,13.0,8.5,0.0,35,22,11,0.00,40.00,29,18,40,0.00
2013-1-10,55.0,45.4,30.0,9.0,2.0,-1.0,31,16,11,0.00,40.00,29,10,39,0.00
2013-1-11,39.0,14.0,4.0,16.0,1.0,-25.0,71,56,22,0.00,40.00,20,9,29,0.00
2013-1-12,10.0,4.4,-3.0,-2.0,-6.0,-14.0,67,61,40,0.00,40.00,22,8,29,0.00
2013-1-13,12.0,1.5,-4.0,-5.0,-9.0,-41.0,69,61,11,0.00,40.00,9,4,12,0.00
2013-1-14,12.0,3.0,-11.0,-7.0,-12.3,-18.0,68,50,35,0.00,40.00,23,10,30,0.00
2013-1-15,30.0,21.4,9.0,7.0,0.4,-13.0,42,39,35,0.00,40.00,23,17,32,0.00
2013-1-16,43.0,30.5,21.0,9.0,4.8,0.0,44,33,18,0.00,40.00,26,13,34,0.00
2013-1-17,47.0,31.6,17.0,7.0,1.7,-2.0,47,30,15,0.00,40.00,26,10,33,0.00
2013-1-18,51.0,41.3,33.0,-1.0,-3.2,-7.0,20,15,10,0.00,40.00,28,17,35,0.00
2013-1-19,50.0,38.8,27.0,0.0,-3.0,-9.0,24,16,10,0.00,40.00,22,12,29,0.00
2013-1-20,39.0,28.5,10.0,8.0,3.1,-5.0,74,36,18,0.00,40.00,17,7,32,0.00
2013-1-21,50.0,35.5,10.0,9.0,0.8,-6.0,75,28,10,0.00,40.00,26,14,34,0.00
2013-1-22,54.0,42.0,26.0,-1.0,-5.9,-10.0,20,13,10,0.00,40.00,22,13,29,0.00
2013-1-23,58.0,48.5,41.0,2.0,-5.7,-11.0,10,10,10,0.00,40.00,22,12,31,0.00
2013-1-24,54.0,46.9,34.0,23.0,8.1,-9.0,61,23,10,0.00,40.00,36,21,53,0.00
2013-1-25,52.0,42.5,35.0,22.0,17.4,14.0,56,37,23,0.00,40.00,27,17,36,0.00
2013-1-26,54.0,45.3,38.0,20.0,17.4,16.0,40,32,24,0.00,40.00,24,14,34,0.00
2013-1-27,54.0,44.7,37.0,23.0,19.0,15.0,46,36,25,0.00,40.00,25,10,31,0.00
2013-1-28,42.0,27.8,20.0,24.0,19.0,5.0,81,70,34,0.00,40.00,13,5,18,0.00
2013-1-29,27.0,17.6,9.0,9.0,-0.0,-33.0,67,47,11,0.00,40.00,16,7,24,0.00
2013-1-30,33.0,22.6,2.0,12.0,3.6,-18.0,67,44,31,0.00,40.00,23,12,31,0.00
2013-1-31,33.0,26.7,20.0,17.0,12.4,6.0,69,54,40,0.00,40.00,18,6,28,0.00
2013-2-1,39.0,32.7,21.0,26.0,15.2,6.0,71,49,36,0.00,40.00,21,11,30,0.00
2013-2-2,46.0,31.3,18.0,16.0,7.3,0.0,71,40,14,0.00,40.00,24,9,29,0.00
2013-2-3,48.0,33.8,18.0,12.0,5.8,-22.0,69,34,11,0.00,40.00,27,10,34,0.00
2013-2-4,49.0,35.3,21.0,10.0,6.4,-11.0,58,32,11,0.00,40.00,23,10,32,0.00
2013-2-5,50.0,38.2,19.0,14.0,8.6,-11.0,62,31,18,0.00,40.00,19,8,26,0.00
2013-2-6,46.0,40.1,29.0,18.0,8.9,3.0,64,29,18,0.00,40.00,22,8,27,0.00
2013-2-7,47.0,30.4,15.0,20.0,2.4,-15.0,80,41,10,0.00,40.00,20,6,27,0.00
2013-2-8,51.0,37.2,22.0,3.0,-1.8,-15.0,27,19,10,0.00,40.00,16,7,21,0.00
2013-2-9,31.0,26.1,20.0,23.0,15.4,0.0,81,65,26,0.00,40.00,10,4,15,0.00
2013-2-10,26.0,21.0,6.0,18.0,8.8,-7.0,76,59,40,0.00,40.00,16,7,26,0.00
2013-2-11,25.0,11.8,-3.0,4.0,-4.3,-11.0,70,50,28,0.00,40.00,17,6,24,0.00
2013-2-12,28.0,23.0,16.0,5.0,-1.3,-8.0,38,34,30,0.00,40.00,22,14,31,0.00
2013-2-13,40.0,31.7,26.0,21.0,10.8,4.0,71,42,30,0.00,40.00,27,16,37,0.00
2013-2-14,30.0,24.5,20.0,21.0,11.8,6.0,73,58,40,0.00,40.00,27,8,35,0.00
2013-2-15,32.0,24.2,10.0,14.0,9.1,-4.0,77,54,30,0.00,40.00,19,9,27,0.00
2013-2-16,44.0,35.3,22.0,11.0,8.5,5.0,48,33,23,0.00,40.00,27,14,37,0.00
2013-2-17,44.0,37.7,27.0,17.0,7.0,-1.0,58,30,16,0.00,40.00,32,18,48,0.00
2013-2-18,33.0,24.9,13.0,18.0,11.1,1.0,73,56,34,0.00,40.00,16,8,32,0.00
2013-2-19,39.0,23.3,8.0,15.0,7.1,3.0,79,54,24,0.00,40.00,16,8,19,0.00
2013-2-20,33.0,24.7,16.0,19.0,10.5,6.0,79,56,34,0.00,40.00,16,7,19,0.00
2013-2-21,26.0,23.8,17.0,19.0,14.8,1.0,81,68,35,0.00,40.00,10,5,12,0.00
2013-2-22,34.0,24.3,12.0,12.0,3.4,-5.0,73,44,21,0.00,40.00,26,11,30,0.00
2013-2-23,39.0,32.1,26.0,24.0,8.5,-2.0,81,39,25,0.00,40.00,30,20,44,0.00
2013-2-24,31.0,22.9,11.0,20.0,11.2,-30.0,75,61,12,0.00,40.00,21,7,30,0.00
2013-2-25,33.0,22.6,5.0,5.0,0.7,-16.0,73,42,11,0.00,40.00,22,11,32,0.00
2013-2-26,31.0,25.6,13.0,21.0,12.9,1.0,78,59,26,0.00,40.00,24,9,31,0.00
2013-2-27,30.0,20.0,8.0,13.0,4.4,-2.0,73,52,33,0.00,40.00,21,9,27,0.00
2013-2-28,35.0,25.0,13.0,7.0,2.3,-29.0,51,37,11,0.00,40.00,21,9,27,0.00
2013-3-1,46.0,31.4,17.0,19.0,9.9,-26.0,55,42,11,0.00,40.00,21,7,29,0.00
2013-3-2,52.0,44.1,32.0,21.0,16.7,-3.0,59,34,11,0.00,40.00,22,12,29,0.00
2013-3-3,52.0,45.2,28.0,19.0,16.0,-4.0,64,31,11,0.00,40.00,30,22,44,0.00
2013-3-4,30.0,23.5,12.0,19.0,4.5,-8.0,78,45,20,0.00,40.00,28,12,38,0.00
2013-3-5,45.0,25.0,7.0,6.0,-0.2,-33.0,71,40,10,0.00,40.00,18,6,26,0.00
2013-3-6,59.0,41.1,17.0,9.0,5.2,-24.0,60,27,10,0.00,40.00,26,11,35,0.00
2013-3-7,56.0,45.9,35.0,18.0,10.8,-6.0,41,24,12,0.00,40.00,21,11,30,0.00
2013-3-8,47.0,36.6,28.0,22.0,18.5,-11.0,73,49,11,0.00,40.00,28,10,35,0.00
2013-3-9,38.0,32.6,25.0,26.0,12.4,0.0,81,46,20,0.00,40.00,29,11,36,0.00
2013-3-10,49.0,32.9,18.0,15.0,6.4,-3.0,74,40,11,0.00,40.00,17,8,26,0.00
2013-3-11,40.0,33.8,26.0,27.0,16.5,6.0,79,52,27,0.00,40.00,19,7,23,0.00
2013-3-12,41.0,27.5,12.0,21.0,13.8,5.0,77,58,30,0.00,40.00,8,4,13,0.00
2013-3-13,61.0,45.2,28.0,24.0,17.4,8.0,70,36,12,0.00,40.00,24,11,30,0.00
2013-3-14,67.0,50.4,34.0,22.0,16.3,7.0,50,29,10,0.00,40.00,24,8,31,0.00
2013-3-15,68.0,56.6,42.0,18.0,11.4,5.0,33,17,10,0.00,40.00,24,13,37,0.00
2013-3-16,54.0,40.6,30.0,29.0,20.2,11.0,82,48,18,0.00,40.00,16,8,22,0.00
2013-3-17,50.0,35.6,24.0,30.0,11.2,-12.0,82,48,10,0.00,40.00,43,20,55,0.00
2013-3-18,43.0,26.7,11.0,7.0,-3.2,-13.0,56,31,10,0.00,40.00,27,8,34,0.00
2013-3-19,38.0,28.0,19.0,20.0,9.0,-3.0,79,48,16,0.00,40.00,21,10,28,0.00
2013-3-20,55.0,34.3,13.0,17.0,7.9,-24.0,73,41,10,0.00,40.00,31,13,41,0.00
2013-3-21,47.0,37.4,22.0,28.0,20.3,15.0,81,53,31,0.00,40.00,24,11,30,0.00
2013-3-22,33.0,24.0,17.0,18.0,12.6,6.0,80,63,37,0.00,40.00,14,4,20,0.00
2013-3-23,20.0,17.2,15.0,11.0,4.7,0.0,65,57,50,0.00,40.00,10,6,18,0.00
2013-3-25,37.0,25.9,8.0,7.0,-0.6,-8.0,69,36,14,0.00,40.00,14,7,20,0.00
2013-3-26,45.0,35.2,24.0,16.0,3.0,-5.0,52,26,11,0.00,40.00,16,6,24,0.00
2013-3-27,56.0,39.0,22.0,21.0,15.7,10.0,76,43,16,0.00,40.00,11,3,16,0.00
2013-3-28,60.0,43.5,28.0,23.0,13.0,2.0,67,35,10,0.00,40.00,17,6,21,0.00
2013-3-29,65.0,46.5,29.0,34.0,16.5,3.0,74,38,10,0.00,40.00,21,7,37,0.00
2013-3-30,50.0,38.3,32.0,34.0,26.0,-99.9,81,66,25,0.00,40.00,21,6,29,0.00
2013-3-31,61.0,43.8,30.0,23.0,14.0,0.0,71,38,10,0.00,40.00,21,8,27,0.00
2013-4-1,53.0,40.0,26.0,21.0,14.3,7.0,74,40,16,0.00,40.00,14,8,19,0.00
2013-4-2,57.0,41.6,23.0,19.0,10.0,2.0,71,32,10,0.00,40.00,15,6,21,0.00
2013-4-3,65.0,45.2,24.0,29.0,15.7,4.0,71,38,10,0.00,40.00,26,7,34,0.00
2013-4-4,69.0,49.9,28.0,33.0,18.5,4.0,81,41,10,0.00,40.00,19,6,27,0.00
2013-4-5,69.0,56.8,39.0,31.0,16.0,8.0,69,22,10,0.00,40.00,33,14,45,0.00
2013-4-6,60.0,48.3,34.0,31.0,14.1,0.0,70,30,10,0.00,40.00,23,10,28,0.00
2013-4-7,58.0,50.3,42.0,21.0,16.2,-5.0,35,26,12,0.00,40.00,30,17,39,0.00
2013-4-8,49.0,30.8,14.0,28.0,15.4,4.0,78,56,24,0.00,40.00,27,10,34,0.00
2013-4-9,16.0,12.1,10.0,6.0,2.2,-32.0,73,64,11,0.00,40.00,15,6,24,0.00
2013-4-10,26.0,16.1,10.0,8.0,4.9,2.0,73,61,44,0.00,40.00,11,6,15,0.00
2013-4-11,44.0,34.8,15.0,27.0,19.9,-2.0,73,54,15,0.00,40.00,17,9,23,0.00
2013-4-12,44.0,35.3,31.0,29.0,24.9,16.0,81,66,32,0.00,40.00,14,7,19,0.00
2013-4-13,54.0,41.6,27.0,28.0,20.0,6.0,80,47,17,0.00,40.00,40,18,58,0.00
2013-4-14,37.0,31.2,26.0,26.0,13.2,0.0,82,51,20,0.00,40.00,28,13,38,0.00
2013-4-15,30.0,25.0,19.0,16.0,9.9,4.0,66,52,42,0.00,40.00,16,7,19,0.00
2013-4-16,24.0,21.1,19.0,17.0,13.6,7.0,81,73,47,0.00,40.00,30,17,35,0.00
2013-4-17,29.0,20.7,18.0,15.0,11.1,6.0,79,66,41,0.00,40.00,18,8,23,0.00
2013-4-18,32.0,21.4,13.0,12.0,7.0,2.0,77,55,33,0.00,40.00,20,11,25,0.00
2013-4-19,48.0,36.8,22.0,20.0,12.4,0.0,48,36,15,0.00,40.00,26,10,34,0.00
2013-4-20,55.0,44.6,37.0,32.0,23.0,3.0,78,44,11,0.00,40.00,24,9,30,0.00
2013-4-21,57.0,43.2,34.0,32.0,24.3,0.0,76,53,11,0.00,40.00,24,9,37,0.00
2013-4-22,36.0,25.7,19.0,30.0,14.7,6.0,77,63,46,0.00,40.00,22,11,28,0.00
2013-4-23,40.0,24.1,8.0,13.0,3.4,-19.0,75,46,11,0.00,40.00,17,8,24,0.00
2013-4-24,48.0,35.1,24.0,12.0,6.9,-1.0,53,33,13,0.00,40.00,25,11,38,0.00
2013-4-25,65.0,47.9,28.0,12.0,5.7,-7.0,48,21,10,0.00,40.00,26,12,34,0.00
2013-4-26,68.0,48.8,26.0,17.0,10.8,2.0,61,27,10,0.00,40.00,14,5,22,0.00
2013-4-27,74.0,54.9,33.0,20.0,13.0,2.0,50,22,10,0.00,40.00,19,8,30,0.00
2013-4-28,67.0,55.8,44.0,31.0,20.2,16.0,59,26,15,0.00,40.00,21,7,26,0.00
2013-4-29,70.0,55.1,35.0,33.0,15.9,4.0,78,32,10,0.00,40.00,35,18,49,0.00
2013-4-30,43.0,37.5,31.0,27.0,18.4,9.0,81,47,27,0.00,40.00,19,10,25,0.00
2013-5-1,37.0,30.5,26.0,26.0,17.8,10.0,81,60,40,0.00,40.00,17,8,20,0.00
2013-5-2,52.0,36.8,21.0,18.0,8.2,-4.0,71,37,10,0.00,40.00,18,8,29,0.00
2013-5-3,66.0,46.3,23.0,17.0,9.0,-1.0,64,29,10,0.00,40.00,14,5,21,0.00
2013-5-4,57.0,47.4,35.0,17.0,13.4,-6.0,43,26,11,0.00,40.00,19,11,27,0.00
2013-5-5,61.0,47.0,31.0,18.0,14.0,10.0,54,29,14,0.00,40.00,20,11,29,0.00
2013-5-6,68.0,52.0,33.0,27.0,18.1,11.0,72,31,11,0.00,40.00,14,7,21,0.00
2013-5-7,71.0,54.4,33.0,28.0,22.5,15.0,69,31,12,0.00,40.00,22,8,29,0.00
2013-5-8,69.0,54.9,40.0,33.0,25.2,12.0,65,36,11,0.00,40.00,24,9,35,0.00
2013-5-9,68.0,51.5,37.0,41.0,30.5,19.0,77,50,16,0.00,40.00,24,6,34,0.00
2013-5-10,70.0,53.3,38.0,37.0,22.4,-99.9,81,42,10,0.00,40.00,30,8,35,0.00
2013-5-11,72.0,55.4,39.0,31.0,19.1,-99.9,69,30,10,0.00,40.00,11,5,19,0.00
2013-5-12,80.0,64.3,47.0,26.0,20.8,13.0,40,21,10,0.00,40.00,18,8,24,0.00
2013-5-13,87.0,70.3,50.0,33.0,24.9,18.0,44,21,10,0.00,40.00,16,6,22,0.00
2013-5-14,87.0,70.7,54.0,29.0,22.6,13.0,25,17,10,0.00,40.00,19,8,29,0.00
2013-5-15,81.0,62.3,47.0,48.0,32.4,22.0,72,36,12,0.00,40.00,29,9,41,0.00
2013-5-16,77.0,59.0,48.0,46.0,20.0,-99.9,79,41,12,0.00,40.00,27,8,41,0.00
2013-5-17,82.0,64.1,51.0,45.0,29.9,-99.9,76,40,10,0.00,40.00,22,7,32,0.00
2013-5-18,72.0,56.9,46.0,44.0,33.7,16.0,79,48,14,0.00,40.00,22,7,35,0.00
2013-5-19,54.0,49.2,44.0,43.0,39.7,-1.0,81,70,11,0.00,40.00,21,11,27,0.00
2013-5-20,51.0,47.4,44.0,40.0,29.8,20.0,74,51,30,0.00,40.00,26,18,39,0.00
2013-5-21,63.0,52.0,43.0,34.0,24.7,14.0,69,39,14,0.00,40.00,19,11,26,0.00
2013-5-22,65.0,50.4,38.0,37.0,31.6,7.0,81,54,11,0.00,40.00,28,14,36,0.00
2013-5-23,69.0,56.5,45.0,39.0,35.6,33.0,77,48,26,0.00,40.00,33,24,44,0.00
2013-5-24,76.0,64.9,49.0,41.0,19.4,6.0,74,23,10,0.00,40.00,24,13,31,0.00
2013-5-25,84.0,63.3,42.0,35.0,24.3,13.0,61,27,10,0.00,40.00,21,5,32,0.00
2013-5-26,76.0,61.8,46.0,40.0,34.5,15.0,69,37,10,0.00,40.00,22,7,29,0.00
2013-5-27,78.0,61.5,47.0,48.0,30.9,12.0,79,40,10,0.00,40.00,27,11,36,0.00
2013-5-28,72.0,58.3,42.0,35.0,27.0,23.0,63,32,17,0.00,40.00,21,8,27,0.00
2013-5-29,60.0,52.2,46.0,44.0,36.7,31.0,77,56,34,0.00,40.00,31,8,39,0.00
2013-5-30,61.0,54.0,49.0,34.0,27.3,23.0,56,36,23,0.00,40.00,33,20,44,0.00
2013-5-31,57.0,51.2,45.0,36.0,25.2,22.0,68,37,26,0.00,40.00,32,21,42,0.00
2013-6-1,67.0,53.5,45.0,37.0,25.9,18.0,74,38,15,0.00,40.00,17,9,24,0.00
2013-6-2,85.0,62.9,37.0,37.0,24.8,12.0,80,33,10,0.00,40.00,33,7,49,0.00
2013-6-3,77.0,64.0,50.0,41.0,23.0,9.0,52,24,10,0.00,40.00,24,12,35,0.00
2013-6-4,62.0,50.8,39.0,32.0,27.0,-4.0,73,41,11,0.00,40.00,18,8,22,0.00
2013-6-5,70.0,53.2,36.0,34.0,24.2,15.0,79,38,12,0.00,40.00,14,5,17,0.00
2013-6-6,78.0,60.2,38.0,32.0,24.0,17.0,74,31,10,0.00,40.00,14,6,22,0.00
2013-6-7,83.0,66.7,48.0,37.0,28.3,18.0,57,26,10,0.00,40.00,16,6,27,0.00
2013-6-8,73.0,62.6,52.0,47.0,33.6,21.0,78,38,14,0.00,40.00,23,9,32,0.00
2013-6-9,85.0,67.1,45.0,42.0,32.3,22.0,76,34,10,0.00,40.00,17,5,22,0.00
2013-6-10,90.0,74.8,57.0,43.0,33.4,25.0,50,23,11,0.00,40.00,17,6,27,0.00
2013-6-11,89.0,71.2,52.0,50.0,34.9,16.0,79,35,10,0.00,40.00,26,9,37,0.00
2013-6-12,83.0,66.3,47.0,43.0,35.4,25.0,73,36,12,0.00,40.00,28,10,39,0.00
2013-6-13,90.0,68.2,52.0,45.0,39.4,22.0,73,41,10,0.00,40.00,30,13,45,0.00
2013-6-14,81.0,67.3,52.0,47.0,30.8,14.0,69,32,10,0.00,40.00,24,12,34,0.00
2013-6-15,78.0,62.6,42.0,36.0,32.0,29.0,74,35,16,0.00,40.00,13,5,17,0.00
2013-6-16,87.0,69.9,47.0,38.0,28.3,17.0,60,25,10,0.00,40.00,16,7,20,0.00
2013-6-17,82.0,67.5,55.0,46.0,38.6,31.0,57,36,20,0.00,40.00,23,10,32,0.00
2013-6-18,80.0,65.7,47.0,42.0,34.0,5.0,75,35,12,0.00,40.00,32,12,42,0.00
2013-6-19,94.0,75.1,56.0,43.0,30.6,8.0,58,24,10,0.00,40.00,24,11,33,0.00
2013-6-20,83.0,65.8,54.0,20.0,10.7,3.0,14,11,10,0.00,40.00,17,10,22,0.00
2013-6-22,78.0,64.1,53.0,44.0,36.8,27.0,59,38,19,0.00,40.00,21,9,31,0.00
2013-6-23,84.0,64.8,45.0,42.0,32.6,18.0,80,39,10,0.00,40.00,16,8,29,0.00
2013-6-24,90.0,70.1,49.0,41.0,31.7,19.0,66,32,10,0.00,40.00,17,6,26,0.00
2013-6-25,83.0,74.4,63.0,30.0,25.1,21.0,22,16,11,0.00,40.00,24,15,39,0.00
2013-6-26,92.0,76.2,53.0,37.0,27.6,24.0,38,18,10,0.00,40.00,22,7,31,0.00
2013-6-27,95.0,74.8,53.0,44.0,33.6,26.0,61,27,10,0.00,40.00,18,7,27,0.00
2013-6-28,91.0,77.5,59.0,45.0,39.8,36.0,58,27,16,0.00,40.00,17,8,22,0.00
2013-6-29,90.0,75.7,55.0,44.0,38.5,35.0,63,28,15,0.00,40.00,17,6,21,0.00
2013-6-30,86.0,71.1,58.0,52.0,40.3,28.0,77,39,14,0.00,40.00,12,6,19,0.00
2013-7-1,85.0,64.1,51.0,43.0,37.6,29.0,69,40,13,0.00,40.00,16,6,22,0.00
2013-7-2,86.0,65.3,54.0,45.0,40.3,25.0,67,45,12,0.00,40.00,12,4,19,0.00
2013-7-3,92.0,73.7,49.0,37.0,31.5,25.0,53,24,10,0.00,40.00,18,6,25,0.00
2013-7-4,92.0,75.6,55.0,58.0,39.0,32.0,77,30,12,0.00,40.00,20,7,26,0.00
2013-7-5,86.0,66.9,59.0,56.0,49.7,33.0,79,60,16,0.00,40.00,14,4,19,0.00
2013-7-6,84.0,66.9,57.0,55.0,44.7,34.0,77,49,17,0.00,40.00,16,7,22,0.00
2013-7-7,93.0,72.1,61.0,51.0,41.6,23.0,66,41,10,0.00,40.00,10,6,18,0.00
2013-7-8,89.0,65.5,60.0,49.0,38.5,-99.9,59,43,12,0.00,40.00,18,10,24,0.00
2013-7-9,93.0,69.8,51.0,44.0,36.5,28.0,70,34,10,0.00,40.00,15,8,23,0.00
2013-7-10,94.0,74.7,56.0,46.0,32.1,-99.9,67,28,10,0.00,40.00,15,8,23,0.00
2013-7-11,100.0,80.5,60.0,51.0,39.1,27.0,69,28,10,0.00,40.00,14,7,20,0.00
2013-7-12,89.0,80.0,69.0,44.0,38.9,28.0,32,23,14,0.00,40.00,17,8,26,0.00
2013-7-13,90.0,78.5,62.0,47.0,39.0,31.0,56,26,12,0.00,40.00,23,7,30,0.00
2013-7-15,91.0,78.5,66.0,55.0,44.6,35.0,67,33,16,0.00,40.00,17,10,22,0.00
2013-7-16,89.0,74.1,55.0,43.0,36.2,26.0,58,29,10,0.00,40.00,19,8,26,0.00
2013-7-17,91.0,73.1,55.0,49.0,39.4,33.0,74,36,12,0.00,40.00,9,3,19,0.00
2013-7-18,92.0,77.1,65.0,45.0,38.3,33.0,42,26,13,0.00,40.00,13,7,19,0.00
2013-7-19,87.0,69.4,60.0,53.0,42.8,39.0,74,40,18,0.00,40.00,14,6,22,0.00
2013-7-20,88.0,65.8,58.0,48.0,43.7,29.0,62,47,11,0.00,40.00,8,4,12,0.00
2013-7-21,97.0,72.6,51.0,44.0,38.9,27.0,72,36,10,0.00,40.00,17,6,23,0.00
2013-7-22,97.0,74.5,56.0,42.0,34.8,23.0,55,29,10,0.00,40.00,16,5,21,0.00
2013-7-23,91.0,73.7,55.0,47.0,38.1,24.0,68,33,10,0.00,40.00,10,4,16,0.00
2013-7-24,89.0,74.9,58.0,51.0,45.2,40.0,61,36,19,0.00,40.00,17,10,24,0.00
2013-7-25,84.0,71.4,58.0,49.0,39.5,30.0,71,35,15,0.00,40.00,12,6,19,0.00
2013-7-26,89.0,68.9,51.0,44.0,38.6,29.0,63,36,11,0.00,40.00,19,8,28,0.00
2013-7-27,78.0,65.5,52.0,53.0,45.1,38.0,75,50,24,0.00,40.00,17,10,27,0.00
2013-7-28,83.0,68.3,59.0,53.0,45.8,36.0,76,49,20,0.00,40.00,18,6,24,0.00
2013-7-29,81.0,63.0,55.0,52.0,45.6,33.0,79,59,18,0.00,40.00,17,7,23,0.00
2013-7-30,85.0,66.8,56.0,51.0,42.2,29.0,76,47,14,0.00,40.00,21,7,26,0.00
2013-7-31,85.0,65.9,54.0,47.0,42.8,36.0,74,47,17,0.00,40.00,7,4,12,0.00
2013-8-1,89.0,69.8,55.0,51.0,43.8,35.0,78,45,15,0.00,40.00,9,5,16,0.00
2013-8-2,89.0,73.0,59.0,51.0,43.4,32.0,70,39,13,0.00,40.00,20,7,25,0.00
2013-8-3,83.0,71.2,60.0,56.0,49.3,44.0,79,50,26,0.00,40.00,25,10,31,0.00
2013-8-4,93.0,68.6,55.0,51.0,42.7,25.0,77,45,10,0.00,40.00,13,6,17,0.00
2013-8-5,91.0,74.2,60.0,53.0,38.9,24.0,71,37,10,0.00,40.00,11,4,18,0.00
2013-8-6,84.0,68.9,54.0,45.0,38.1,29.0,66,36,16,0.00,40.00,18,6,26,0.00
2013-8-7,86.0,73.1,56.0,45.0,41.0,35.0,64,33,17,0.00,40.00,17,8,22,0.00
2013-8-8,82.0,63.1,52.0,48.0,41.4,27.0,79,48,14,0.00,40.00,25,8,40,0.00
2013-8-9,79.0,61.1,54.0,51.0,44.1,34.0,73,56,20,0.00,40.00,16,6,19,0.00
2013-8-10,77.0,56.8,49.0,48.0,43.4,31.0,80,63,23,0.00,40.00,9,3,11,0.00
2013-8-11,84.0,68.3,55.0,50.0,36.4,28.0,60,35,13,0.00,40.00,22,6,32,0.00